Volver al catálogo

KUIPER-00064

ActivoComunicacionesLEO
NORAD 64524·PAYLOAD·🇺🇸 United States

Lanzado Jun 23, 2025 desde Cape Canaveral Space Force Station

Loading…

Próximos Pases (próximas 24 horas)

TLE

ActualizadoSource: CelesTrak SupGP

Época: Sep 14, 2026, 23:09 UTC

1 64524C 25134AA  26257.96504630  .00004216  00000+0  55206-3 0  2571
2 64524  51.9008 118.5970 0001163 101.2957 172.4428 14.79917251    18

Sigue KUIPER-00064 en tiempo real con AllMySat

Download on the App Store